This demonstration page uses our WeatherBlox Daily Observations layout. Learn more.

Left ArrowRight Arrow

Hourly Observations for April 3, 2022

Temp ( °F °C ) Dew Point ( °F °C ) Humidity (%) Winds ( mph kmh ) Pressure ( in mb ) Visibility ( mi km ) Precip ( " mm )
12:56 am 00:56 Clear 49 9.4 28 -2.2 44 44 S 16 26 29.93 1014 10 16 0.00 0.00
1:56 am 01:56 Clear 46 7.8 28 -2.2 50 50 SSE 15 24 29.92 1013 10 16 0.00 0.00
2:56 am 02:56 Clear 43 6.1 29 -1.7 58 58 SSE 9 15 29.91 1013 10 16 0.00 0.00
3:56 am 03:56 Clear 40 4.4 29 -1.7 65 65 SSE 9 15 29.89 1012 10 16 0.00 0.00
4:56 am 04:56 Clear 37 2.8 28 -2.2 70 70 S 8 13 29.88 1012 10 16 0.00 0.00
5:56 am 05:56 Clear 37 2.8 29 -1.7 73 73 S 8 13 29.86 1011 10 16 0.00 0.00
6:56 am 06:56 Clear 43 6.1 30 -1.1 60 60 W 7 11 29.90 1013 10 16 0.00 0.00
7:56 am 07:56 Sunny 43 6.1 31 -0.6 63 63 SW 3 6 29.91 1013 10 16 0.00 0.00
8:56 am 08:56 Mostly Cloudy 46 7.8 32 0 58 58 Calm 29.95 1014 10 16 0.00 0.00
9:56 am 09:56 Sunny 51 10.6 33 0.6 50 50 NNW 10 17 29.94 1014 10 16 0.00 0.00
10:56 am 10:56 Sunny 54 12.2 31 -0.6 42 42 N 16 26 29.96 1014 10 16 0.00 0.00
11:56 am 11:56 Mostly Sunny 57 13.9 31 -0.6 37 37 N 17 28 29.96 1015 10 16 0.00 0.00
12:56 pm 12:56 Sunny 57 13.9 30 -1.1 36 36 NNW 14 22 29.94 1014 10 16 0.00 0.00
1:56 pm 13:56 Sunny 61 16.1 27 -2.8 27 27 NW 17 28 29.92 1013 10 16 0.00 0.00
2:56 pm 14:56 Sunny 60 15.6 23 -5 24 24 WNW 20 31 29.91 1013 10 16 0.00 0.00
3:56 pm 15:56 Sunny 61 16.1 19 -7.2 20 20 NW 14 22 29.90 1013 10 16 0.00 0.00
4:56 pm 16:56 Sunny 62 16.7 14 -10 15 15 NW 14 22 29.88 1012 10 16 0.00 0.00
5:56 pm 17:56 Sunny 61 16.1 16 -8.9 17 17 NNW 17 28 29.89 1012 10 16 0.00 0.00
6:56 pm 18:56 Sunny 60 15.6 21 -6.1 22 22 NNW 8 13 29.89 1012 10 16 0.00 0.00
7:56 pm 19:56 Sunny 56 13.3 19 -7.2 24 24 NNW 7 11 29.91 1013 10 16 0.00 0.00
8:56 pm 20:56 Clear 52 11.1 18 -7.8 26 26 WNW 6 9 29.94 1014 10 16 0.00 0.00
9:56 pm 21:56 Clear 48 8.9 19 -7.2 32 32 NW 6 9 29.95 1014 10 16 0.00 0.00
10:56 pm 22:56 Clear 44 6.7 19 -7.2 37 37 NW 7 11 29.97 1015 10 16 0.00 0.00
11:56 pm 23:56 Clear 42 5.6 20 -6.7 41 41 NNW 8 13 29.98 1015 10 16 0.00 0.00

Powered by AerisWeather